Blackpool, United Kingdom

7:39 AM BST on September 25, 2017 (GMT +0100)
Blackpool

Weather History for EGNH - October, 2011

Change the Weather History Date:

Thursday, October 13, 2011

  Actual Average Record
Temperature  
Mean Temperature 56 °F -  
Max Temperature 62 °F 52 °F 66 °F (1996)
Min Temperature 51 °F 44 °F 37 °F (1999)
Degree Days  
Heating Degree Days 8    
Growing Degree Days 6 (Base 50)    
Moisture  
Dew Point 53 °F    
Average Humidity 86    
Maximum Humidity 100    
Minimum Humidity 68    
Precipitation  
Precipitation 0.00 in - - ()
Sea Level Pressure  
Sea Level Pressure 30.37 in    
Wind  
Wind Speed 9 mph ()    
Max Wind Speed 15 mph    
Max Gust Speed -    
Visibility 5.9 miles    
Events      
Averages and records for this station are not official NWS values.
T = Trace of Precipitation, MM = Missing Value Source: Averaged Metar Reports

Daily Weather History Graph

Daily Weather History Graph

Search for Another Location

Airport or City:

Trip Planner

Search our weather history database for the weather conditions in past years. The results will help you decide how hot, cold, wet, or windy it might be!

Date:

Astronomy

Oct. 13, 2011 Rise Set
Actual Time 7:35 AM BST 6:20 PM BST
Civil Twilight 6:59 AM BST 6:56 PM BST
Nautical Twilight 6:18 AM BST 7:36 PM BST
Astronomical Twilight 5:37 AM BST 8:17 PM BST
Moon 6:23 PM BST (10/13) 9:15 AM BST (10/13)
Length of Visible Light 11h 56m
Length of Day
10h 45m
Full, 98% of the Moon is Illuminated
Oct 13
Full
Oct 20
Last Quarter
Oct 26
New
Nov 2
First Quarter
Nov 10
Full

Hourly Weather History & Observations

Time (BST) Temp. Dew Point Humidity Pressure Visibility Wind Dir Wind Speed Gust Speed Precip Events Conditions
12:50 AM 54 °F 53 °F 95%  in - SSE 4.6 mph - -  
3:50 AM 52 °F 51 °F 94%  in - East 9.2 mph - -  
6:20 AM 51.8 °F 51.8 °F 100% 30.33 in 6.2 mi East 9.2 mph - N/A   Overcast
6:50 AM 52 °F 51 °F 93%  in - East 8.1 mph - -  
6:50 AM 51.8 °F 50.0 °F 94% 30.33 in 6.2 mi East 6.9 mph - N/A   Mostly Cloudy
7:20 AM 51.8 °F 51.8 °F 100% 30.33 in 6.2 mi East 5.8 mph - N/A   Mostly Cloudy
7:50 AM 53.6 °F 51.8 °F 94% 30.33 in 5.6 mi East 5.8 mph - N/A   Mostly Cloudy
8:20 AM 53.6 °F 51.8 °F 94% 30.33 in 5.6 mi East 8.1 mph - N/A   Mostly Cloudy
8:50 AM 53.6 °F 51.8 °F 94% 30.36 in 5.6 mi East 8.1 mph - N/A   Mostly Cloudy
9:20 AM 53.6 °F 51.8 °F 94% 30.36 in 4.3 mi East 8.1 mph - N/A   Mostly Cloudy
9:50 AM 55 °F 53 °F 91%  in - ESE 9.2 mph - -  
9:50 AM 55.4 °F 53.6 °F 94% 30.36 in 5.6 mi East 9.2 mph - N/A   Mostly Cloudy
10:20 AM 55.4 °F 55.4 °F 100% 30.39 in 5.6 mi ESE 12.7 mph - N/A   Mostly Cloudy
10:50 AM 57.2 °F 55.4 °F 94% 30.39 in 4.3 mi ESE 11.5 mph - N/A   Mostly Cloudy
11:20 AM 57.2 °F 55.4 °F 94% 30.39 in 4.3 mi ESE 13.8 mph - N/A   Scattered Clouds
11:50 AM 59.0 °F 55.4 °F 88% 30.39 in 5.6 mi ESE 13.8 mph - N/A   Scattered Clouds
12:20 PM 59.0 °F 53.6 °F 82% 30.39 in 5.6 mi ESE 13.8 mph - N/A   Partly Cloudy
12:50 PM 59 °F 53 °F 75%  in - SE 13.8 mph - -  
12:50 PM 60.8 °F 53.6 °F 77% 30.39 in 6.2 mi SE 15.0 mph - N/A   Partly Cloudy
1:20 PM 60.8 °F 55.4 °F 82% 30.39 in 6.2 mi SE 15.0 mph - N/A   Scattered Clouds
1:50 PM 60.8 °F 55.4 °F 82% 30.39 in 6.2 mi ESE 13.8 mph - N/A   Scattered Clouds
2:20 PM 62.6 °F 55.4 °F 77% 30.39 in 6.2 mi SE 15.0 mph - N/A   Scattered Clouds
2:50 PM 60.8 °F 53.6 °F 77% 30.39 in 6.2 mi SE 13.8 mph - N/A   Scattered Clouds
3:20 PM 62.6 °F 55.4 °F 77% 30.39 in 6.2 mi SE 12.7 mph - N/A   Scattered Clouds
3:50 PM 61 °F 53 °F 68%  in - SSE 11.5 mph - -  
3:50 PM 60.8 °F 53.6 °F 77% 30.36 in 6.2 mi SE 12.7 mph - N/A   Scattered Clouds
4:20 PM 60.8 °F 53.6 °F 77% 30.36 in 6.2 mi SE 11.5 mph - N/A   Scattered Clouds
4:50 PM 60.8 °F 53.6 °F 77% 30.36 in 6.2 mi SE 11.5 mph - N/A   Partly Cloudy
5:20 PM 60.8 °F 53.6 °F 77% 30.36 in 6.2 mi ESE 11.5 mph - N/A   Partly Cloudy
5:50 PM 59.0 °F 53.6 °F 82% 30.36 in 6.2 mi ESE 9.2 mph - N/A   Scattered Clouds
6:20 PM 59.0 °F 53.6 °F 82% 30.36 in 6.2 mi ESE 9.2 mph - N/A   Scattered Clouds
6:50 PM 57.2 °F 53.6 °F 88% 30.39 in 6.2 mi ESE 9.2 mph - N/A   Scattered Clouds
7:20 PM 57.2 °F 53.6 °F 88% 30.39 in 6.2 mi ESE 10.4 mph - N/A   Partly Cloudy
7:50 PM 59.0 °F 53.6 °F 82% 30.39 in 6.2 mi SE 12.7 mph - N/A   Scattered Clouds
8:20 PM 57.2 °F 51.8 °F 82% 30.39 in 6.2 mi ESE 11.5 mph - N/A   Scattered Clouds
8:50 PM 57.2 °F 51.8 °F 82% 30.39 in 6.2 mi ESE 13.8 mph - N/A   Scattered Clouds
9:50 PM 57 °F 51 °F 72%  in - SE 12.7 mph - -